Temp
43 42 39 39 40 40 38 38 39 38 37 37 37 37 37 37 37 37 38 36 35 35 35 35 34 34 34 34 34 34 34 34 33 30 33 33 32 32 33 32 33 34 35
41 41 41 39 38 38 39 38 38 37 37 37 37 37 37 37 36 36 35 34 35 33 34 33 33 31 31 32 32 31 31 31 31 29 28 30 30 30 31 30 31 33 34
39 38 40 40 39 38 38 38 36 38 36 37 36 36 36 36 36 36 37 36 36 36 34 33 32 30 28 29 30 29 29 28 28 27 27 27 28 29 29 30 30 32 33
37 37 36 37 38 38 39 38 36 37 37 36 36 36 36 36 36 36 37 36 35 35 35 34 32 31 29 27 27 26 26 26 25 25 24 24 25 28 28 27 28 31 30
36 35 35 36 36 36 36 36 36 35 36 36 36 36 36 36 36 35 36 35 34 34 34 33 32 32 32 30 27 25 24 23 23 22 22 23 24 24 25 28 26 28 29
34 34 35 34 33 34 34 34 34 33 33 34 33 34 34 35 38 38 37 35 33 34 31 31 31 29 32 32 32 30 26 21 19 21 23 22 24 26 27 26 25 24 25
31 33 32 32 31 31 32 32 32 32 33 32 33 33 33 34 39 39 38 35 33 34 32 30 29 29 29 30 32 31 30 30 27 24 23 25 25 27 27 25 25 25 25
29 29 30 29 29 29 29 30 30 31 30 30 32 32 32 34 37 39 37 35 33 33 32 31 30 28 29 28 29 27 27 27 27 27 27 28 29 29 28 27 25 22 23
27 27 27 26 25 28 27 28 29 28 29 29 31 30 30 32 36 38 37 34 31 31 32 31 30 28 30 31 27 24 23 24 30 30 30 30 30 30 30 24 19 17 16
26 26 25 24 24 26 27 27 28 27 28 29 28 29 29 29 35 37 38 34 29 29 29 29 30 29 31 31 25 24 22 23 24 26 28 30 31 27 27 25 20 15 15
23 23 22 22 22 23 24 26 26 26 26 26 25 26 26 28 29 35 38 34 28 27 25 26 27 31 31 31 27 23 24 24 25 23 24 22 22 22 22 23 23 20 15
19 19 19 18 19 20 20 22 25 24 23 24 24 24 24 26 28 32 36 38 31 26 24 27 25 32 30 31 28 25 27 24 22 19 18 17 18 18 20 21 22 22 23
16 15 15 16 16 16 16 18 21 24 21 22 22 22 23 24 24 30 31 37 31 25 25 26 27 32 30 30 30 27 26 20 17 14 15 17 19 20 20 19 19 19 19
11 12 13 12 12 13 15 17 19 22 22 22 22 21 22 21 21 23 28 30 30 27 27 26 27 29 29 29 28 29 22 19 17 17 16 17 18 16 16 17 15 15 14
9 9 9 9 9 10 12 14 17 23 24 22 22 23 22 20 21 24 25 28 27 26 23 22 23 24 24 24 23 18 17 16 15 15 14 13 14 14 14 15 14 13 10
4 5 5 6 6 7 8 10 18 22 26 30 30 28 24 27 29 27 28 30 30 28 21 20 21 23 18 20 17 15 15 13 14 13 12 12 12 12 12 12 12 10 9
1 2 3 3 4 4 5 7 8 15 24 29 30 31 30 28 28 28 29 30 31 28 20 20 20 20 18 18 16 14 12 13 14 13 12 11 10 9 9 9 9 9 8
1 2 2 2 2 3 4 6 8 10 12 17 24 27 30 30 30 28 29 30 27 26 21 20 19 19 16 15 14 13 12 12 11 11 10 9 7 7 6 6 7 5 6
1 1 2 2 3 3 5 6 8 9 10 16 18 22 25 30 30 29 29 25 25 23 19 18 17 16 15 15 13 13 11 10 9 8 6 4 3 3 2 4 4 4 5
2 3 3 3 3 3 4 5 6 8 10 15 16 17 20 23 24 24 25 24 26 23 17 16 16 15 14 12 10 9 7 6 4 3 2 2 2 2 3 2 3 4 4
3 3 4 3 3 3 4 5 7 9 13 14 15 18 23 21 23 22 23 23 19 16 16 13 12 10 9 7 5 4 4 3 2 1 1 0 -1 -1 1 3 3 2 2
5 5 5 6 6 4 5 7 9 11 14 13 15 16 23 22 22 21 17 13 13 13 11 8 6 5 5 5 4 3 2 1 0 1 0 -1 -1 -1 -2 0 0 2 3
4 5 6 8 10 11 8 10 13 13 13 14 15 17 17 13 9 7 6 6 6 5 5 4 3 1 2 2 4 4 2 1 1 -0 -1 -2 -3 -3 -3 -2 -1 0 2
3 4 5 6 9 9 10 11 12 13 11 8 7 7 6 5 3 2 2 2 2 3 4 3 2 1 -1 -1 -1 -0 1 -0 -2 -2 -2 -3 -3 -5 -4 -3 -1 1 4
2 2 3 4 5 6 5 5 5 4 5 4 4 3 3 3 2 1 1 1 1 1 0 0 1 -1 -2 -3 -4 -4 -5 0 -6 -6 -7 -7 -6 -5 -4 -3 1 4 5
-1 -0 0 1 2 2 2 2 2 2 2 2 2 2 2 1 1 1 1 0 -1 -2 -2 -1 -2 -2 -2 -2 -3 -4 -4 -1 -3 -3 -6 -6 -4 -3 -2 1 2 4 4
MSLP
1012.10 1011.54 1011.33 1011.25 1011.36 1011.50 1011.46 1010.40 1010.10 1010.58 1010.82 1011.11 1011.45 1012.29 1013.04 1013.20 1013.77 1014.53 1014.71 1015.44 1015.91 1016.77 1017.76 1018.25 1018.80 1019.35 1020.18 1020.82 1021.32 1021.80 1022.32 1022.75 1023.35 1024.98 1025.11 1025.33 1025.66 1025.99 1026.39 1026.45 1026.25 1025.79 1024.97
1012.98 1012.03 1011.56 1011.24 1011.26 1011.38 1011.01 1010.47 1009.86 1010.00 1010.28 1010.57 1010.92 1011.09 1011.99 1012.62 1012.68 1012.95 1013.82 1014.13 1014.45 1015.23 1016.20 1017.37 1018.12 1018.98 1019.77 1020.42 1020.93 1021.30 1021.68 1022.41 1022.99 1023.77 1024.78 1024.88 1024.93 1025.05 1025.08 1025.43 1025.21 1025.14 1024.58
1013.38 1012.90 1012.12 1011.59 1011.33 1011.00 1010.55 1010.21 1009.57 1009.65 1009.56 1010.03 1010.33 1010.29 1010.64 1011.39 1011.84 1011.90 1012.31 1013.15 1013.84 1013.98 1014.65 1015.59 1016.60 1017.73 1018.81 1019.70 1020.37 1021.10 1021.60 1021.82 1022.44 1023.07 1023.83 1024.52 1024.18 1024.20 1024.11 1024.25 1024.34 1024.12 1023.70
1013.63 1013.53 1013.17 1012.79 1011.95 1010.65 1009.96 1009.50 1009.09 1009.21 1009.36 1009.38 1009.51 1009.24 1009.30 1009.93 1010.67 1011.04 1011.58 1011.94 1012.38 1012.89 1013.50 1014.18 1014.96 1015.83 1016.91 1018.17 1019.31 1020.19 1021.44 1021.89 1022.11 1022.74 1023.42 1024.15 1024.45 1024.16 1024.30 1023.93 1023.64 1024.10 1023.64
1013.94 1013.30 1012.99 1012.70 1011.93 1011.10 1010.22 1009.12 1008.72 1008.98 1008.83 1008.42 1008.90 1008.84 1008.82 1008.46 1008.54 1009.69 1010.47 1011.07 1011.36 1011.63 1012.36 1013.18 1013.77 1014.60 1015.21 1016.15 1017.50 1018.86 1020.02 1020.96 1021.59 1022.36 1022.86 1023.51 1023.84 1024.15 1023.67 1023.47 1023.89 1024.40 1023.97
1014.36 1013.94 1013.52 1012.47 1011.93 1011.04 1010.10 1009.02 1008.46 1008.51 1008.27 1008.11 1008.27 1008.17 1008.28 1007.99 1007.53 1007.47 1008.44 1009.51 1010.27 1010.75 1011.65 1012.57 1013.09 1014.02 1014.37 1015.09 1016.37 1017.10 1017.91 1019.26 1020.44 1020.88 1021.72 1021.98 1021.89 1022.92 1022.97 1023.25 1023.46 1023.84 1023.60
1014.34 1013.58 1013.18 1012.62 1011.54 1010.84 1010.07 1009.37 1008.87 1008.53 1008.21 1007.89 1007.55 1007.70 1007.32 1007.09 1007.22 1007.10 1007.34 1008.08 1008.49 1008.99 1010.23 1011.45 1012.50 1012.90 1013.97 1014.80 1015.57 1016.72 1017.69 1018.31 1018.74 1019.08 1020.17 1020.68 1020.87 1021.59 1022.17 1022.58 1022.56 1022.84 1022.50
1013.89 1013.39 1012.84 1012.45 1011.62 1010.71 1010.00 1009.82 1009.48 1008.72 1008.42 1007.65 1006.93 1006.81 1006.31 1006.09 1006.55 1006.54 1006.65 1007.36 1008.00 1007.91 1008.62 1009.72 1010.49 1011.32 1012.10 1013.45 1014.42 1015.66 1016.90 1017.63 1018.13 1018.64 1019.02 1020.00 1020.24 1021.07 1021.58 1021.37 1021.49 1022.04 1022.09
1013.95 1013.47 1013.09 1012.73 1012.19 1011.24 1010.51 1009.88 1009.25 1009.06 1008.28 1007.06 1006.32 1005.72 1005.52 1005.45 1005.91 1005.36 1005.91 1006.30 1006.65 1007.06 1007.36 1008.65 1009.44 1010.47 1010.83 1012.07 1013.12 1014.35 1016.06 1017.01 1017.68 1018.02 1018.70 1019.44 1019.79 1020.22 1020.81 1020.87 1020.99 1021.70 1021.45
1013.48 1013.16 1012.88 1012.70 1012.03 1010.97 1010.45 1009.98 1009.41 1009.11 1007.98 1005.67 1005.17 1004.95 1004.61 1004.84 1004.96 1004.93 1004.93 1004.89 1006.24 1006.25 1005.20 1006.72 1007.93 1009.07 1010.28 1010.63 1011.75 1013.03 1014.38 1015.43 1016.48 1017.28 1018.09 1018.50 1018.76 1019.81 1020.29 1019.92 1020.16 1020.56 1021.00
1013.10 1012.91 1012.63 1012.19 1011.51 1010.68 1009.86 1008.83 1008.12 1007.01 1005.93 1005.46 1004.33 1003.92 1003.74 1004.13 1004.30 1004.08 1003.71 1003.82 1004.15 1005.49 1006.22 1006.53 1006.94 1008.28 1009.15 1009.74 1011.10 1012.36 1013.08 1014.61 1015.87 1016.86 1017.41 1018.49 1019.18 1019.58 1019.68 1019.79 1019.46 1019.62 1020.09
1012.66 1012.31 1012.00 1011.57 1011.01 1010.21 1009.61 1008.59 1007.55 1006.63 1005.80 1004.86 1003.89 1003.38 1003.30 1003.78 1003.67 1003.09 1002.52 1002.61 1004.00 1004.65 1005.10 1005.56 1006.78 1007.36 1008.66 1008.92 1010.20 1012.06 1013.16 1014.30 1015.19 1016.27 1017.18 1018.22 1018.79 1018.96 1019.19 1019.28 1019.00 1018.83 1019.37
1012.29 1011.81 1011.29 1010.84 1010.30 1009.64 1008.98 1007.65 1006.66 1005.50 1004.62 1003.54 1003.23 1002.95 1002.63 1002.95 1002.37 1002.22 1002.25 1001.78 1002.84 1003.90 1004.71 1005.47 1006.24 1006.58 1008.01 1008.66 1009.28 1011.29 1012.43 1013.92 1014.78 1015.76 1016.98 1017.69 1018.17 1018.42 1018.89 1018.72 1018.43 1018.77 1019.31
1011.87 1011.11 1010.56 1010.04 1009.22 1008.60 1007.82 1006.72 1005.51 1004.05 1003.11 1002.52 1002.20 1001.89 1001.44 1001.93 1001.38 1001.50 1001.45 1001.41 1001.91 1003.11 1004.10 1005.00 1006.00 1006.68 1007.87 1007.95 1008.79 1010.18 1011.67 1013.03 1013.88 1014.70 1016.18 1017.28 1018.24 1018.81 1018.86 1018.18 1017.94 1018.17 1018.36
1011.53 1010.65 1010.01 1009.36 1008.52 1007.49 1006.65 1005.61 1004.38 1002.70 1002.10 1001.32 1000.78 1000.61 1000.65 1000.35 1000.10 1000.21 1000.79 1000.68 1000.87 1001.84 1003.35 1004.35 1005.32 1005.95 1007.26 1008.14 1008.66 1010.41 1011.53 1012.73 1013.44 1014.49 1015.39 1016.92 1017.52 1018.31 1018.28 1018.07 1017.93 1017.88 1018.01
1011.14 1010.41 1009.72 1008.88 1007.98 1007.10 1005.99 1004.39 1003.52 1002.09 1000.89 999.75 999.57 999.35 999.21 999.09 999.30 999.23 999.69 999.69 1000.10 1001.26 1002.11 1002.92 1004.06 1004.40 1005.59 1006.69 1008.11 1009.82 1011.48 1012.12 1012.82 1013.66 1015.10 1016.08 1016.90 1017.59 1017.50 1017.85 1017.53 1017.60 1017.64
1010.64 1009.77 1009.01 1008.25 1007.30 1006.43 1005.49 1004.24 1002.25 1000.77 999.63 997.99 997.79 997.59 997.64 997.49 998.08 998.22 998.72 998.59 998.91 1000.65 1001.12 1001.64 1002.36 1003.68 1005.17 1006.38 1007.71 1008.71 1010.72 1011.55 1012.31 1013.34 1014.69 1015.46 1016.32 1016.71 1017.18 1017.19 1017.18 1017.39 1017.10
1009.53 1008.72 1007.91 1007.06 1006.29 1005.44 1004.52 1003.33 1002.19 1000.74 999.06 997.68 997.33 996.90 996.26 996.41 996.60 997.53 997.75 998.08 998.12 999.41 1000.47 1001.06 1002.07 1002.94 1003.94 1005.17 1007.20 1008.52 1009.93 1011.43 1012.33 1013.14 1014.01 1015.05 1015.64 1016.16 1016.56 1016.82 1016.90 1016.88 1016.55
1008.16 1007.21 1006.35 1005.50 1004.70 1003.95 1003.17 1002.29 1001.14 1000.05 998.80 997.39 996.74 996.31 995.81 995.24 995.71 996.18 996.95 997.19 997.12 998.10 999.86 1000.91 1002.01 1002.92 1004.28 1005.62 1006.63 1008.62 1009.76 1011.30 1012.66 1013.25 1013.83 1014.58 1015.25 1015.60 1015.92 1016.26 1016.51 1016.45 1016.25
1006.54 1005.57 1004.70 1003.84 1002.99 1002.25 1001.56 1000.74 999.96 998.96 997.76 996.40 995.98 995.70 995.38 995.18 994.97 995.15 995.83 996.79 997.16 997.77 999.45 1000.97 1002.51 1003.27 1004.25 1005.45 1006.88 1008.45 1010.07 1011.10 1012.80 1014.02 1014.09 1014.70 1015.13 1015.49 1015.71 1015.98 1016.30 1015.99 1015.43
1005.05 1003.97 1003.07 1002.32 1001.50 1000.72 1000.07 999.43 998.57 997.72 996.59 995.83 995.56 995.34 995.07 994.92 994.63 995.07 995.85 996.49 997.39 998.50 999.74 1001.22 1002.87 1003.88 1004.88 1006.07 1007.47 1008.90 1010.24 1011.58 1012.77 1013.41 1013.68 1014.49 1014.98 1015.16 1015.46 1015.60 1015.48 1015.38 1015.05
1003.88 1002.71 1001.64 1000.54 999.51 999.01 998.50 998.02 997.36 996.72 995.96 995.66 995.41 995.16 994.69 994.57 994.68 995.26 996.40 997.54 998.63 999.28 1000.38 1002.05 1003.43 1004.50 1005.77 1006.52 1007.50 1009.18 1010.50 1011.47 1012.35 1013.01 1013.50 1014.06 1014.57 1014.94 1015.08 1015.02 1014.82 1014.66 1014.54
1003.41 1002.22 1000.88 999.56 998.28 997.37 997.20 996.90 996.26 995.96 995.76 995.54 995.41 995.20 994.97 995.66 996.18 997.24 998.22 999.28 999.96 1000.58 1001.54 1002.73 1004.12 1005.58 1006.65 1007.19 1008.17 1008.95 1009.90 1011.07 1011.86 1012.49 1013.19 1013.90 1014.13 1014.43 1014.75 1014.56 1014.38 1014.17 1013.94
1003.38 1002.28 1001.08 999.90 998.71 997.88 997.28 996.78 996.39 996.12 996.07 996.12 996.18 996.46 996.82 997.38 997.65 998.77 999.66 1000.42 1001.00 1001.89 1002.58 1003.58 1004.91 1006.04 1007.20 1008.06 1008.97 1009.32 1010.21 1011.06 1011.78 1012.56 1013.11 1013.57 1013.61 1013.68 1013.87 1014.07 1013.79 1013.28 1013.02
1003.96 1002.95 1001.93 1000.94 1000.00 999.22 998.63 998.17 997.83 997.66 997.57 997.63 997.82 998.13 998.55 998.97 999.41 1000.17 1000.95 1001.55 1002.24 1002.84 1003.67 1004.68 1005.89 1006.87 1007.68 1008.65 1009.39 1009.93 1010.57 1011.11 1012.04 1012.69 1013.01 1012.92 1012.93 1013.22 1013.36 1013.21 1012.72 1012.39 1011.90
1004.86 1003.97 1003.14 1002.27 1001.49 1000.80 1000.21 999.85 999.63 999.45 999.34 999.38 999.52 999.74 1000.01 1000.37 1000.89 1001.47 1002.16 1002.74 1003.38 1004.15 1005.04 1006.02 1006.84 1007.39 1008.07 1008.83 1009.42 1010.05 1010.72 1011.09 1011.33 1011.59 1012.20 1012.48 1012.66 1012.63 1012.23 1011.66 1011.37 1011.39 1011.19
Wind_Speed
15 12 8 8 8 7 9 9 10 8 10 12 14 14 15 16 15 15 15 15 16 14 11 13 12 11 8 8 7 6 6 4 4 3 3 5 5 4 3 3 3 5 4
15 14 13 9 8 9 11 10 8 11 10 12 13 15 15 16 17 19 18 16 19 18 17 15 14 10 12 11 8 10 9 7 4 6 4 5 5 3 3 5 3 4 7
13 14 15 15 11 9 11 10 8 10 12 13 13 15 16 17 17 18 19 17 18 18 19 19 17 17 14 11 11 10 9 8 6 4 4 2 2 2 2 2 4 6 8
13 11 10 12 14 14 13 10 7 10 12 13 14 16 17 16 17 18 18 19 19 18 18 19 19 21 19 18 14 13 10 9 8 7 5 4 4 4 4 4 4 4 8
13 12 12 12 12 11 12 12 10 9 12 12 14 15 15 17 15 18 18 19 19 18 17 17 17 20 27 23 14 14 14 10 9 8 6 5 5 5 7 4 5 5 10
10 11 11 11 13 13 13 12 11 11 10 11 13 14 16 14 24 30 24 18 18 18 17 16 15 19 25 29 26 26 21 17 14 9 9 9 11 7 6 6 5 4 4
11 10 9 12 13 14 15 14 12 11 10 12 13 14 17 17 25 28 31 17 18 19 18 17 14 13 17 16 24 24 24 25 19 14 12 11 10 10 8 8 7 6 5
11 11 12 14 17 15 14 15 14 10 11 11 12 14 14 13 25 27 28 17 16 19 19 20 20 19 21 19 18 16 15 15 15 12 11 9 8 9 9 7 5 4 5
11 11 12 13 15 13 13 15 15 13 12 11 10 12 14 14 24 26 25 19 16 18 17 17 18 18 27 31 18 17 14 13 19 21 15 14 14 15 12 4 3 2 1
11 11 11 13 15 15 15 14 12 12 14 9 10 10 12 14 21 26 25 14 14 13 17 18 25 22 33 34 19 18 17 16 14 12 11 14 11 6 8 6 5 4 3
8 10 12 12 14 14 15 15 15 14 12 11 11 10 9 11 12 25 30 17 13 12 11 11 12 29 33 33 24 15 15 14 18 10 8 6 6 6 5 6 6 6 4
9 12 14 15 13 13 16 16 16 13 13 13 10 10 8 10 16 24 29 31 21 13 13 10 12 31 31 33 25 21 22 16 9 9 8 8 7 6 6 6 6 5 5
11 15 17 16 15 15 15 17 14 13 10 11 9 10 10 9 9 24 26 29 28 13 9 14 21 30 30 28 29 25 20 9 9 8 8 7 6 6 7 5 3 3 5
16 19 17 17 17 16 13 13 13 13 11 11 10 11 9 8 9 9 11 14 22 18 18 12 16 21 21 18 19 19 10 10 10 9 8 6 5 4 5 4 3 2 2
19 18 18 15 17 16 15 14 13 15 14 12 12 10 10 11 12 15 16 13 12 15 14 11 11 13 12 10 8 10 10 9 9 8 8 7 6 5 4 3 2 1 1
19 15 14 13 13 13 14 15 25 31 35 32 30 23 10 22 20 22 27 28 25 31 14 14 13 14 14 14 12 10 8 9 8 8 8 7 7 6 4 3 1 2 3
18 17 14 15 13 13 13 13 15 16 29 28 29 29 29 19 22 21 27 29 29 31 13 13 15 14 12 11 11 12 9 9 10 8 8 8 7 6 5 3 1 3 4
18 22 15 14 13 13 13 13 12 13 14 10 16 22 24 26 23 22 23 24 17 23 12 12 13 13 12 13 12 10 10 10 9 9 8 8 7 6 4 3 2 3 4
16 14 14 13 13 15 13 14 13 14 14 13 8 12 14 22 23 22 23 13 11 14 10 10 11 12 12 11 10 9 10 9 8 7 7 6 6 5 4 3 3 5 6
15 21 19 13 13 13 12 12 12 13 13 11 8 8 6 8 9 10 10 10 9 10 10 10 9 9 10 10 10 10 9 9 8 5 6 5 5 4 3 3 3 4 5
12 13 18 14 13 12 12 12 11 11 11 7 7 7 14 9 8 8 8 8 6 10 11 10 9 8 8 9 10 9 9 8 7 6 6 5 5 4 4 4 3 4 6
11 11 11 12 11 11 11 10 11 11 8 7 6 7 18 8 5 6 5 8 8 9 10 10 9 8 8 9 10 9 8 8 7 6 6 5 4 3 3 3 4 5 6
11 12 11 11 9 10 8 9 6 4 5 5 5 5 1 5 9 9 9 8 8 9 9 10 10 9 7 8 7 8 9 7 6 6 6 5 4 4 4 4 4 5 6
10 11 10 9 8 7 5 4 3 2 4 6 6 6 7 6 10 10 9 8 9 9 9 10 9 11 9 7 5 5 5 5 5 6 6 5 5 4 3 5 6 8 9
10 10 10 10 9 9 8 8 8 8 7 7 7 7 8 8 10 10 9 9 9 10 11 10 8 11 10 9 7 6 6 8 6 7 5 4 5 5 6 6 8 8 10
10 10 9 9 9 9 8 8 8 8 8 7 7 8 8 9 9 10 9 10 9 10 10 7 8 10 10 7 7 7 8 9 8 9 6 6 6 7 7 9 9 7 9
Wind_Direction
4 357 315 285 260 243 236 222 213 200 191 189 190 196 199 194 190 195 195 186 188 183 185 185 182 170 176 177 173 171 175 172 163 148 204 175 209 210 259 292 283 295 291
348 353 355 321 278 257 250 238 208 206 200 201 197 194 198 203 196 195 197 193 190 187 184 181 182 169 177 178 180 182 181 177 155 176 179 190 199 244 282 304 308 291 290
351 347 348 354 344 293 269 253 221 221 208 206 203 202 200 204 204 204 199 197 202 197 187 185 181 175 178 179 183 181 181 173 171 155 176 240 253 321 311 297 321 312 301
346 343 341 342 339 337 317 288 244 229 222 216 215 210 204 200 208 205 205 201 197 199 193 192 183 183 180 176 180 179 175 173 174 177 180 203 245 256 258 291 306 297 287
337 339 338 336 333 330 324 317 283 240 235 222 224 222 217 206 199 201 206 207 204 199 196 194 191 191 185 180 173 175 170 170 171 176 185 185 202 200 205 188 247 272 273
325 327 322 330 335 335 330 327 311 280 254 238 228 224 223 223 216 204 198 201 202 200 197 197 190 187 188 184 186 180 175 169 175 172 188 205 200 202 197 213 223 238 264
322 326 323 327 330 331 331 330 320 295 267 245 238 232 230 229 225 214 205 203 196 198 197 192 187 185 184 184 189 188 192 191 183 174 184 198 187 194 194 205 214 234 245
319 323 332 333 328 323 327 323 315 301 272 250 244 238 238 236 231 222 209 205 207 202 198 194 191 182 183 177 177 181 189 195 191 190 189 189 185 189 208 206 199 239 271
308 314 321 323 317 310 311 312 310 298 278 255 247 238 238 242 234 223 209 206 205 207 196 197 193 189 184 178 173 173 180 191 198 199 192 196 202 208 210 167 202 199 273
294 305 310 308 304 305 306 293 288 277 272 267 258 242 235 242 235 230 215 202 217 210 187 189 194 186 186 182 177 175 182 185 180 189 195 207 206 192 212 207 176 181 189
282 297 300 294 295 296 295 299 292 291 288 272 259 255 237 232 234 229 223 211 197 196 201 195 189 191 189 185 178 185 185 166 180 174 171 168 187 207 204 199 186 176 176
286 292 295 297 293 294 293 289 283 275 270 268 265 264 242 230 222 228 226 219 205 199 199 189 187 190 191 185 177 186 182 162 163 159 167 185 199 203 198 191 186 189 216
288 290 293 292 289 287 284 284 284 269 256 262 250 249 244 230 224 230 237 228 199 195 190 189 187 189 190 189 178 181 179 155 158 152 180 190 193 183 185 187 187 222 257
294 291 291 288 290 285 280 276 275 268 260 253 248 246 242 233 217 217 225 229 199 188 186 182 186 188 189 181 179 179 154 160 166 160 169 163 168 193 209 188 177 185 265
290 290 291 289 285 284 275 274 269 269 254 255 252 245 236 232 226 207 212 220 184 172 156 156 176 175 178 177 157 135 140 145 152 152 150 169 174 196 208 194 185 132 231
290 288 286 287 286 284 284 283 272 273 272 253 254 249 235 243 247 220 217 215 189 172 163 165 180 179 167 164 155 148 153 149 153 150 165 170 174 189 182 197 192 236 268
284 286 284 281 279 278 277 278 286 285 282 262 257 256 247 237 235 230 223 215 191 178 183 178 176 173 168 165 162 156 164 163 152 158 170 169 173 171 179 187 224 261 284
281 280 279 276 273 272 269 268 267 270 275 260 256 260 259 242 225 222 219 217 181 188 189 183 178 172 159 157 161 162 151 156 162 167 165 168 166 164 165 185 223 272 295
284 278 274 270 268 266 267 269 270 273 271 271 257 262 272 242 235 203 211 222 197 188 176 172 165 159 162 160 154 154 151 156 162 160 160 161 159 159 167 188 229 268 287
283 278 273 272 268 264 260 261 264 262 265 253 249 252 248 237 225 188 195 213 219 179 157 154 157 154 156 149 142 139 139 141 147 162 154 156 157 168 175 194 232 262 279
287 282 274 270 264 262 261 258 258 262 262 247 248 247 239 236 211 181 186 199 154 145 145 131 133 132 131 130 128 131 134 141 157 159 154 165 166 175 193 214 239 262 270
292 288 284 278 268 257 254 256 255 257 251 247 251 246 255 244 182 158 106 99 112 115 116 120 115 116 130 136 131 134 144 151 156 163 165 165 179 202 195 228 244 259 268
307 306 304 299 292 276 247 255 251 242 245 246 250 255 246 86 87 89 94 98 100 101 105 108 112 110 111 111 124 141 149 160 168 158 163 180 188 202 205 241 252 252 260
326 326 328 333 342 352 354 352 339 331 64 63 68 69 75 78 91 91 93 96 94 94 99 103 107 116 114 112 120 118 113 123 140 165 174 186 200 204 219 238 244 247 257
345 347 349 352 359 6 14 24 34 41 49 55 63 69 76 85 89 93 95 97 98 98 92 98 102 118 123 132 141 150 161 170 171 182 185 193 222 228 233 236 248 252 264
356 1 4 4 7 10 19 25 33 37 44 51 61 68 76 82 85 90 92 91 92 90 95 98 114 120 129 139 154 171 188 194 194 199 186 199 222 237 231 237 244 258 264